DW4379 Weather Reports


Display with metric or nautical units.
time (UTC)temp
F
wind
direction
speed
MPH
gust
MPH
rain 1hr
in
rain 24hr
in
rain mn
in
humidity
%
barometer
mb
20260904164003 94 242 0.0 3.0 0.00 0.00 0.00 62 1015.0
20260904163503 94 236 1.0 4.0 0.00 0.00 0.00 61 1014.8
20260904163003 94 237 0.0 4.0 0.00 0.00 0.00 62 1014.8
20260904162503 94 195 0.0 1.0 0.00 0.00 0.00 61 1014.9
20260904162003 94 261 0.0 1.0 0.00 0.00 0.00 61 1014.9
20260904161504 93 275 0.0 1.0 0.00 0.00 0.00 62 1014.9
20260904161003 93 299 0.0 2.0 0.00 0.00 0.00 62 1014.9
20260904160717 92 305 0.0 2.0 0.00 0.00 0.00 62 1014.9
20260904160004 92 299 1.0 2.0 0.00 0.00 0.00 63 1014.9
20260904155503 92 290 0.0 2.0 0.00 0.00 0.00 63 1014.8
20260904155218 92 284 0.0 2.0 0.00 0.00 0.00 64 1014.8
20260904154717 92 0 0.0 0.0 0.00 0.00 0.00 64 1014.8
20260904154003 91 241 0.0 4.0 0.00 0.00 0.00 65 1014.9
20260904153503 91 237 0.0 4.0 0.00 0.00 0.00 67 1014.9
20260904153218 91 237 0.0 3.0 0.00 0.00 0.00 67 1014.8
20260904152504 90 241 0.0 1.0 0.00 0.00 0.00 68 1014.7
20260904152003 90 207 0.0 2.0 0.00 0.00 0.00 68 1014.9
20260904151504 90 215 0.0 2.0 0.00 0.00 0.00 67 1014.8
20260904151003 90 209 0.0 3.0 0.00 0.00 0.00 68 1014.7
20260904150504 89 209 0.0 4.0 0.00 0.00 0.00 68 1014.7
20260904150004 89 213 0.0 4.0 0.00 0.00 0.00 69 1014.7
20260904145717 89 159 0.0 2.0 0.00 0.00 0.00 69 1014.7
20260904145218 89 234 0.0 1.0 0.00 0.00 0.00 70 1014.7
20260904144503 88 216 0.0 3.0 0.00 0.00 0.00 71 1014.7
20260904144003 88 208 0.0 2.0 0.00 0.00 0.00 72 1014.6
20260904143719 88 217 0.0 2.0 0.00 0.00 0.00 72 1014.6
20260904143004 87 234 0.0 2.0 0.00 0.00 0.00 74 1014.7
20260904142503 86 233 0.0 2.0 0.00 0.00 0.00 74 1014.6
20260904142004 86 232 0.0 2.0 0.00 0.00 0.00 75 1014.7
20260904141503 86 230 0.0 1.0 0.00 0.00 0.00 75 1014.7
20260904141217 86 239 0.0 1.0 0.00 0.00 0.00 76 1014.7
20260904140503 85 230 0.0 3.0 0.00 0.00 0.00 76 1014.7
20260904140004 84 226 0.0 3.0 0.00 0.00 0.00 77 1014.7
20260904135504 84 222 0.0 1.0 0.00 0.00 0.00 78 1014.7
20260904135003 84 233 0.0 1.0 0.00 0.00 0.00 78 1014.7
20260904134718 84 233 0.0 1.0 0.00 0.00 0.00 78 1014.7
20260904134217 83 240 0.0 1.0 0.00 0.00 0.00 79 1014.8
20260904133718 83 0 0.0 0.0 0.00 0.00 0.00 80 1014.8
20260904133004 82 240 0.0 1.0 0.00 0.00 0.00 81 1014.9
20260904132503 82 218 0.0 1.0 0.00 0.00 0.00 81 1014.9
20260904132004 82 214 0.0 1.0 0.00 0.00 0.00 81 1014.9
20260904131504 82 214 0.0 1.0 0.00 0.00 0.00 82 1014.9
20260904131003 81 233 0.0 1.0 0.00 0.00 0.00 82 1014.8
20260904130504 81 233 0.0 1.0 0.00 0.00 0.00 82 1014.8
20260904130004 81 234 0.0 1.0 0.00 0.00 0.00 82 1014.7
20260904125503 81 0 0.0 0.0 0.00 0.00 0.00 83 1014.7
20260904125004 80 0 0.0 0.0 0.00 0.00 0.00 83 1014.7
20260904124503 80 0 0.0 0.0 0.00 0.00 0.00 84 1014.6
20260904124004 80 0 0.0 0.0 0.00 0.00 0.00 84 1014.4
20260904123718 80 0 0.0 0.0 0.00 0.00 0.00 85 1014.3
20260904123004 79 0 0.0 0.0 0.00 0.00 0.00 86 1014.2
20260904122503 78 0 0.0 0.0 0.00 0.00 0.00 87 1014.1
20260904122004 77 0 0.0 0.0 0.00 0.00 0.00 88 1014.0
20260904121503 77 0 0.0 0.0 0.00 0.00 0.00 89 1014.0
20260904121003 77 0 0.0 0.0 0.00 0.00 0.00 90 1014.0
20260904120718 77 0 0.0 0.0 0.00 0.00 0.00 90 1013.9
20260904120003 76 0 0.0 0.0 0.00 0.00 0.00 90 1013.9
20260904115504 76 0 0.0 0.0 0.00 0.00 0.00 90 1013.9
20260904115003 76 0 0.0 0.0 0.00 0.00 0.00 91 1013.9
20260904114504 76 0 0.0 0.0 0.00 0.00 0.00 91 1013.8
20260904114004 76 0 0.0 0.0 0.00 0.00 0.00 91 1013.8
20260904113503 76 0 0.0 0.0 0.00 0.00 0.00 91 1013.9
20260904113003 76 0 0.0 0.0 0.00 0.00 0.00 91 1013.9
20260904112504 76 0 0.0 0.0 0.00 0.00 0.00 91 1013.9
20260904112218 76 0 0.0 0.0 0.00 0.00 0.00 92 1013.8
20260904111504 76 0 0.0 0.0 0.00 0.00 0.00 92 1013.7
20260904111004 76 0 0.0 0.0 0.00 0.00 0.00 92 1013.8
20260904110717 76 0 0.0 0.0 0.00 0.00 0.00 92 1013.9
20260904110003 76 0 0.0 0.0 0.00 0.00 0.00 92 1013.9
20260904105504 76 0 0.0 0.0 0.00 0.00 0.00 92 1013.9
20260904105004 76 0 0.0 0.0 0.00 0.00 0.00 92 1013.9
20260904104503 76 0 0.0 0.0 0.00 0.00 0.00 92 1013.9
20260904104003 76 0 0.0 0.0 0.00 0.00 0.00 91 1013.8
20260904103503 76 0 0.0 0.0 0.00 0.00 0.00 91 1013.7
20260904103004 76 0 0.0 0.0 0.00 0.00 0.00 91 1013.7
20260904102504 76 0 0.0 0.0 0.00 0.00 0.00 91 1013.7
20260904102004 76 0 0.0 0.0 0.00 0.00 0.00 90 1013.7
20260904101504 76 0 0.0 0.0 0.00 0.00 0.00 90 1013.7
20260904101004 76 0 0.0 0.0 0.00 0.00 0.00 90 1013.7
20260904100717 76 0 0.0 0.0 0.00 0.00 0.00 90 1013.7
20260904100003 76 0 0.0 0.0 0.00 0.00 0.00 90 1013.7
20260904095503 76 0 0.0 0.0 0.00 0.00 0.00 90 1013.6
20260904095004 76 0 0.0 0.0 0.00 0.00 0.00 90 1013.6
20260904094504 76 0 0.0 0.0 0.00 0.00 0.00 90 1013.6
20260904094004 76 0 0.0 0.0 0.00 0.00 0.00 90 1013.5
20260904093719 76 0 0.0 0.0 0.00 0.00 0.00 90 1013.5
20260904093004 76 0 0.0 0.0 0.00 0.00 0.00 90 1013.5
20260904092504 76 0 0.0 0.0 0.00 0.00 0.00 90 1013.5
20260904092004 77 0 0.0 0.0 0.00 0.00 0.00 90 1013.4
20260904091503 77 0 0.0 0.0 0.00 0.00 0.00 90 1013.4
20260904091003 77 0 0.0 0.0 0.00 0.00 0.00 89 1013.4
20260904090504 77 0 0.0 0.0 0.00 0.00 0.00 89 1013.3
20260904090004 77 0 0.0 0.0 0.00 0.00 0.00 89 1013.3
20260904085503 77 0 0.0 0.0 0.00 0.00 0.00 90 1013.3
20260904085004 77 0 0.0 0.0 0.00 0.00 0.00 90 1013.2
20260904084504 77 0 0.0 0.0 0.00 0.00 0.00 90 1013.2
20260904084004 77 0 0.0 0.0 0.00 0.00 0.00 90 1013.2
20260904083503 77 0 0.0 0.0 0.00 0.00 0.00 89 1013.2
20260904083217 77 0 0.0 0.0 0.00 0.00 0.00 89 1013.1
20260904082504 77 0 0.0 0.0 0.00 0.00 0.00 89 1013.2
20260904082003 77 0 0.0 0.0 0.00 0.00 0.00 89 1013.2
20260904081504 77 0 0.0 0.0 0.00 0.00 0.00 89 1013.2
20260904081217 77 0 0.0 0.0 0.00 0.00 0.00 89 1013.2
20260904080504 78 0 0.0 0.0 0.00 0.00 0.00 89 1013.3
20260904080003 78 0 0.0 0.0 0.00 0.00 0.00 88 1013.2
20260904075504 78 0 0.0 0.0 0.00 0.00 0.00 88 1013.2
20260904075003 78 0 0.0 0.0 0.00 0.00 0.00 88 1013.2
20260904074504 78 0 0.0 0.0 0.00 0.00 0.00 88 1013.2
20260904074217 78 0 0.0 0.0 0.00 0.00 0.00 89 1013.2
20260904073503 78 0 0.0 0.0 0.00 0.00 0.00 89 1013.4
20260904073003 78 0 0.0 0.0 0.00 0.00 0.00 89 1013.4
20260904072718 78 0 0.0 0.0 0.00 0.00 0.00 88 1013.4
20260904072004 78 0 0.0 0.0 0.00 0.00 0.00 88 1013.4
20260904071504 78 0 0.0 0.0 0.00 0.00 0.00 88 1013.5
20260904071004 78 0 0.0 0.0 0.00 0.00 0.00 88 1013.6
20260904070503 78 0 0.0 0.0 0.00 0.00 0.00 89 1013.5
20260904070004 78 0 0.0 0.0 0.00 0.00 0.00 89 1013.6
20260904065503 78 0 0.0 0.0 0.00 0.00 0.00 89 1013.6
20260904065004 78 0 0.0 0.0 0.00 0.00 0.00 89 1013.6
20260904064718 78 0 0.0 0.0 0.00 0.00 0.00 89 1013.7
20260904064004 78 0 0.0 0.0 0.00 0.00 0.00 89 1013.6
20260904063504 79 0 0.0 0.0 0.00 0.00 0.00 89 1013.6
20260904063003 79 0 0.0 0.0 0.00 0.00 0.00 88 1013.6
20260904062504 79 0 0.0 0.0 0.00 0.00 0.00 89 1013.7
20260904062004 79 0 0.0 0.0 0.00 0.00 0.00 88 1013.8
20260904061504 79 0 0.0 0.0 0.00 0.00 0.00 88 1013.7
20260904061004 79 0 0.0 0.0 0.00 0.00 0.00 88 1013.7
20260904060504 79 0 0.0 0.0 0.00 0.00 0.00 88 1013.7
20260904060218 79 0 0.0 0.0 0.00 0.00 0.00 88 1013.8
20260904055717 79 0 0.0 0.0 0.00 0.00 0.00 88 1013.8
20260904055004 80 0 0.0 0.0 0.00 0.00 0.00 87 1013.7
20260904054504 80 0 0.0 0.0 0.00 0.00 0.00 87 1013.6
20260904054003 80 0 0.0 0.0 0.00 0.00 0.00 86 1013.6
20260904053504 80 0 0.0 0.0 0.00 0.00 0.00 86 1013.6
20260904053004 80 0 0.0 0.0 0.00 0.00 0.00 86 1013.6
20260904052717 80 0 0.0 0.0 0.00 0.00 0.00 86 1013.6
20260904052003 81 0 0.0 0.0 0.00 0.00 0.00 86 1013.5
20260904051717 81 0 0.0 0.0 0.00 0.00 0.00 85 1013.6
20260904051003 81 0 0.0 0.0 0.00 0.00 0.00 84 1013.6
20260904050504 81 0 0.0 0.0 0.00 0.00 0.00 84 1013.6
20260904050004 81 0 0.0 0.0 0.00 0.00 0.00 84 1013.5
20260904045504 82 0 0.0 0.0 0.00 0.00 0.00 84 1013.5
20260904045004 82 0 0.0 0.0 0.00 0.00 0.00 83 1013.5
20260904044717 82 0 0.0 0.0 0.00 0.00 0.00 83 1013.5
20260904044004 82 0 0.0 0.0 0.00 0.00 0.00 83 1013.4
20260904043503 82 0 0.0 0.0 0.00 0.00 0.00 83 1013.5
20260904043004 82 0 0.0 0.0 0.00 0.00 0.00 83 1013.5
20260904042504 82 0 0.0 0.0 0.00 0.00 0.00 84 1013.5
20260904042218 82 0 0.0 0.0 0.00 0.00 0.00 84 1013.5
20260904041719 82 0 0.0 0.0 0.00 0.00 0.00 84 1013.5
20260904041004 82 0 0.0 0.0 0.00 0.00 0.00 84 1013.5
20260904040719 82 0 0.0 0.0 0.00 0.00 0.00 85 1013.5
20260904040009 82 0 0.0 0.0 0.00 0.00 0.00 85 1013.3
20260904035718 82 0 0.0 0.0 0.00 0.00 0.00 85 1013.2
20260904035003 82 0 0.0 0.0 0.00 0.00 0.00 86 1013.3
20260904034503 82 0 0.0 0.0 0.00 0.00 0.00 86 1013.2
20260904034004 82 0 0.0 0.0 0.00 0.00 0.00 85 1013.3
20260904033504 83 0 0.0 0.0 0.00 0.00 0.00 85 1013.3
20260904033004 83 0 0.0 0.0 0.00 0.00 0.00 84 1013.2
20260904032718 83 0 0.0 0.0 0.00 0.00 0.00 84 1013.2
20260904032003 83 0 0.0 0.0 0.00 0.00 0.00 84 1013.3
20260904031504 83 0 0.0 0.0 0.00 0.00 0.00 85 1013.2
20260904031003 83 0 0.0 0.0 0.00 0.00 0.00 85 1013.2
20260904030504 83 0 0.0 0.0 0.00 0.00 0.00 86 1013.1
20260904030004 84 0 0.0 0.0 0.00 0.00 0.00 85 1013.1
20260904025504 84 0 0.0 0.0 0.00 0.00 0.00 86 1013.2
20260904025217 84 0 0.0 0.0 0.00 0.00 0.00 86 1013.2
20260904024718 84 0 0.0 0.0 0.00 0.00 0.00 85 1013.1
20260904024003 84 0 0.0 0.0 0.00 0.00 0.00 85 1013.0
20260904023504 84 0 0.0 0.0 0.00 0.00 0.00 84 1013.2
20260904023004 84 0 0.0 0.0 0.00 0.00 0.00 84 1013.2
20260904022718 84 0 0.0 0.0 0.00 0.00 0.00 83 1013.1
20260904022003 85 0 0.0 0.0 0.00 0.00 0.00 82 1013.1
20260904021503 85 0 0.0 0.0 0.00 0.00 0.00 81 1013.1
20260904021003 85 0 0.0 0.0 0.00 0.00 0.00 82 1013.1
20260904020504 85 0 0.0 0.0 0.00 0.00 0.00 81 1012.9
20260904020004 85 0 0.0 0.0 0.00 0.00 0.00 80 1012.9
20260904015503 86 0 0.0 0.0 0.00 0.00 0.00 79 1013.0
20260904015008 86 0 0.0 0.0 0.00 0.00 0.00 79 1013.0
20260904014503 86 0 0.0 0.0 0.00 0.00 0.00 79 1013.0
20260904014004 86 0 0.0 0.0 0.00 0.00 0.00 79 1013.0
20260904013503 86 0 0.0 0.0 0.00 0.00 0.00 79 1012.9
20260904013004 86 0 0.0 0.0 0.00 0.00 0.00 78 1012.8
20260904012504 86 0 0.0 0.0 0.00 0.00 0.00 78 1012.9
20260904012004 87 0 0.0 0.0 0.00 0.00 0.00 78 1012.9
20260904011504 87 0 0.0 0.0 0.00 0.00 0.00 77 1012.8
20260904011003 87 0 0.0 0.0 0.00 0.00 0.00 77 1012.8
20260904010503 88 0 0.0 0.0 0.00 0.00 0.00 77 1012.8
20260904010004 88 0 0.0 0.0 0.00 0.00 0.00 76 1012.7
20260904005504 89 0 0.0 0.0 0.00 0.00 0.00 76 1012.7
20260904005003 89 0 0.0 0.0 0.00 0.00 0.00 75 1012.6
20260904004504 89 0 0.0 0.0 0.00 0.00 0.00 75 1012.6
20260904004004 90 0 0.0 0.0 0.00 0.00 0.00 74 1012.5
20260904003504 90 0 0.0 0.0 0.00 0.00 0.00 74 1012.6
20260904003004 91 0 0.0 0.0 0.00 0.00 0.00 73 1012.4
20260904002503 91 0 0.0 0.0 0.00 0.00 0.00 72 1012.4
20260904002004 92 0 0.0 0.0 0.00 0.00 0.00 71 1012.4
20260904001504 92 0 0.0 0.0 0.00 0.00 0.00 68 1012.3
20260904001003 93 0 0.0 0.0 0.00 0.00 0.00 69 1012.3
20260904000717 93 0 0.0 0.0 0.00 0.00 0.00 68 1012.3
20260904000004 94 0 0.0 0.0 0.00 0.00 0.00 63 1012.3
20260903235504 94 0 0.0 0.0 0.00 0.00 0.00 61 1012.2
20260903235004 95 0 0.0 0.0 0.00 0.00 0.00 60 1012.3
20260903234504 95 0 0.0 0.0 0.00 0.00 0.00 58 1012.3
20260903234004 95 0 0.0 0.0 0.00 0.00 0.00 57 1012.3
20260903233503 96 0 0.0 0.0 0.00 0.00 0.00 57 1012.3
20260903233004 96 0 0.0 0.0 0.00 0.00 0.00 57 1012.2
20260903232503 96 0 0.0 0.0 0.00 0.00 0.00 57 1012.3
20260903232004 96 0 0.0 0.0 0.00 0.00 0.00 57 1012.3
20260903231504 97 0 0.0 0.0 0.00 0.00 0.00 57 1012.2
20260903231003 97 0 0.0 0.0 0.00 0.00 0.00 57 1012.2
20260903230504 97 0 0.0 0.0 0.00 0.00 0.00 56 1012.1
20260903230004 97 0 0.0 0.0 0.00 0.00 0.00 56 1012.2
20260903225719 97 0 0.0 0.0 0.00 0.00 0.00 56 1012.2
20260903225004 97 0 0.0 0.0 0.00 0.00 0.00 55 1012.2
20260903224504 97 0 0.0 0.0 0.00 0.00 0.00 54 1012.2
20260903224004 98 0 0.0 0.0 0.00 0.00 0.00 56 1012.2
20260903223504 98 0 0.0 0.0 0.00 0.00 0.00 54 1012.2
20260903223003 98 0 0.0 0.0 0.00 0.00 0.00 54 1012.1
20260903222503 98 0 0.0 0.0 0.00 0.00 0.00 53 1012.2
20260903222217 98 0 0.0 0.0 0.00 0.00 0.00 54 1012.2
20260903221504 98 0 0.0 0.0 0.00 0.00 0.00 55 1012.2
20260903221003 98 0 0.0 0.0 0.00 0.00 0.00 53 1012.2
20260903220504 97 0 0.0 0.0 0.00 0.00 0.00 53 1012.2
20260903220004 97 0 0.0 0.0 0.00 0.00 0.00 53 1012.2
20260903215503 98 247 0.0 1.0 0.00 0.00 0.00 55 1012.2
20260903215004 97 120 0.0 3.0 0.00 0.00 0.00 54 1012.2
20260903214504 97 111 0.0 4.0 0.00 0.00 0.00 53 1012.3
20260903214003 97 111 1.0 4.0 0.00 0.00 0.00 53 1012.3
20260903213503 97 115 1.0 4.0 0.00 0.00 0.00 52 1012.3
20260903213004 97 116 1.0 4.0 0.00 0.00 0.00 53 1012.3
20260903212718 98 125 1.0 4.0 0.00 0.00 0.00 52 1012.3
20260903212003 98 163 1.0 3.0 0.00 0.00 0.00 51 1012.4
20260903211504 99 165 1.0 3.0 0.00 0.00 0.00 51 1012.5
20260903211004 99 161 0.0 2.0 0.00 0.00 0.00 51 1012.5
20260903210504 99 176 0.0 3.0 0.00 0.00 0.00 50 1012.4
20260903210004 99 226 0.0 3.0 0.00 0.00 0.00 50 1012.5
20260903205504 100 217 0.0 2.0 0.00 0.00 0.00 49 1012.7
20260903205003 100 201 0.0 2.0 0.00 0.00 0.00 50 1012.6
20260903204503 99 241 0.0 2.0 0.00 0.00 0.00 50 1012.7
20260903204003 99 261 0.0 2.0 0.00 0.00 0.00 50 1012.7
20260903203504 99 204 0.0 3.0 0.00 0.00 0.00 52 1012.8
20260903203217 99 202 0.0 3.0 0.00 0.00 0.00 50 1012.8
20260903202718 99 175 0.0 3.0 0.00 0.00 0.00 51 1012.8
20260903202003 99 265 0.0 2.0 0.00 0.00 0.00 53 1012.8
20260903201503 99 302 0.0 2.0 0.00 0.00 0.00 51 1012.9
20260903201003 100 235 0.0 2.0 0.00 0.00 0.00 51 1012.9
20260903200503 99 198 0.0 2.0 0.00 0.00 0.00 49 1013.0
20260903200003 100 205 0.0 3.0 0.00 0.00 0.00 49 1013.0
20260903195503 99 219 0.0 3.0 0.00 0.00 0.00 52 1013.1
20260903195003 99 236 0.0 2.0 0.00 0.00 0.00 51 1013.1
20260903194504 99 225 0.0 2.0 0.00 0.00 0.00 52 1013.2
20260903194003 99 221 0.0 4.0 0.00 0.00 0.00 52 1013.3
20260903193717 98 224 0.0 4.0 0.00 0.00 0.00 51 1013.4
20260903193004 98 270 0.0 1.0 0.00 0.00 0.00 54 1013.5
20260903192503 98 79 0.0 3.0 0.00 0.00 0.00 53 1013.5
20260903192218 98 99 0.0 3.0 0.00 0.00 0.00 53 1013.5
20260903191503 98 245 0.0 3.0 0.00 0.00 0.00 53 1013.7
20260903191003 98 244 0.0 2.0 0.00 0.00 0.00 52 1013.7
20260903190504 98 254 0.0 2.0 0.00 0.00 0.00 53 1013.7
20260903190004 98 298 0.0 2.0 0.00 0.00 0.00 53 1013.7
20260903185717 97 286 1.0 2.0 0.00 0.00 0.00 53 1013.8
20260903185004 98 249 0.0 3.0 0.00 0.00 0.00 53 1013.8
20260903184503 98 248 0.0 2.0 0.00 0.00 0.00 53 1013.7
20260903184003 98 214 1.0 3.0 0.00 0.00 0.00 55 1013.8
20260903183503 98 155 0.0 3.0 0.00 0.00 0.00 55 1013.8
20260903183003 97 237 0.0 1.0 0.00 0.00 0.00 55 1013.9
20260903182504 96 315 0.0 3.0 0.00 0.00 0.00 56 1013.9
20260903182004 96 288 0.0 3.0 0.00 0.00 0.00 56 1014.0
20260903181503 96 261 0.0 3.0 0.00 0.00 0.00 56 1014.0
20260903181004 96 269 0.0 5.0 0.00 0.00 0.00 57 1014.1
20260903180504 96 270 1.0 5.0 0.00 0.00 0.00 55 1014.1
20260903180004 96 280 0.0 2.0 0.00 0.00 0.00 56 1014.1
20260903175503 96 261 0.0 2.0 0.00 0.00 0.00 56 1014.2
20260903175004 96 258 0.0 2.0 0.00 0.00 0.00 56 1014.2
20260903174723 96 263 0.0 2.0 0.00 0.00 0.00 56 1014.3
20260903174004 96 271 0.0 3.0 0.00 0.00 0.00 57 1014.4
20260903173504 96 275 0.0 2.0 0.00 0.00 0.00 57 1014.4
20260903173003 96 271 0.0 2.0 0.00 0.00 0.00 57 1014.4
20260903172719 96 266 0.0 2.0 0.00 0.00 0.00 56 1014.5
20260903172003 96 209 0.0 3.0 0.00 0.00 0.00 57 1014.5
20260903171503 96 213 0.0 3.0 0.00 0.00 0.00 56 1014.5
20260903171003 96 236 0.0 2.0 0.00 0.00 0.00 57 1014.6
20260903170503 96 241 0.0 2.0 0.00 0.00 0.00 59 1014.6
20260903170218 95 238 0.0 2.0 0.00 0.00 0.00 58 1014.6
20260903165504 95 243 0.0 3.0 0.00 0.00 0.00 59 1014.7
20260903165003 95 235 0.0 3.0 0.00 0.00 0.00 59 1014.9
20260903164504 95 232 0.0 2.0 0.00 0.00 0.00 58 1014.9
20260903164217 95 246 0.0 2.0 0.00 0.00 0.00 59 1014.9